CW1734 Weather Reports


Display with metric or nautical units.
time (UTC)temp
F
wind
direction
speed
MPH
gust
MPH
rain 1hr
in
rain 24hr
in
rain mn
in
humidity
%
barometer
mb
20260902073405 65 208 5.0 14.0 0.00 0.00 0.00 84 1019.3
20260902072904 65 221 5.0 15.0 0.00 0.00 0.00 84 1019.3
20260902072404 65 208 5.0 13.0 0.00 0.00 0.00 84 1019.3
20260902071904 65 209 4.0 7.0 0.00 0.00 0.00 84 1019.3
20260902071404 65 200 5.0 12.0 0.00 0.00 0.00 84 1019.3
20260902070904 65 197 6.0 10.0 0.00 0.00 0.00 84 1019.4
20260902070404 64 219 5.0 9.0 0.00 0.00 0.00 84 1019.4
20260902065905 64 204 5.0 10.0 0.00 0.00 0.00 84 1019.4
20260902065404 64 199 5.0 9.0 0.00 0.00 0.00 84 1019.4
20260902064904 64 212 4.0 7.0 0.00 0.00 0.00 84 1019.2
20260902064404 64 194 3.0 8.0 0.00 0.00 0.00 84 1019.2
20260902063904 64 207 5.0 8.0 0.00 0.00 0.00 84 1019.2
20260902063405 64 211 7.0 12.0 0.00 0.00 0.00 84 1019.2
20260902062904 64 223 3.0 7.0 0.00 0.00 0.00 85 1019.2
20260902062404 64 205 4.0 8.0 0.00 0.00 0.00 85 1019.2
20260902060404 62 204 2.0 5.0 0.00 0.00 0.00 88 1019.2
20260902055904 61 197 3.0 5.0 0.00 0.00 0.00 89 1019.2
20260902055404 61 203 2.0 5.0 0.00 0.00 0.00 89 1019.1
20260902054905 60 208 2.0 3.0 0.00 0.00 0.00 89 1019.1
20260902054404 60 198 3.0 6.0 0.00 0.00 0.00 89 1019.1
20260902053904 60 196 0.0 0.0 0.00 0.00 0.00 89 1019.1
20260902053404 60 197 0.0 0.0 0.00 0.00 0.00 88 1019.1
20260902052904 60 197 0.0 0.0 0.00 0.00 0.00 88 1019.1
20260902052404 60 197 0.0 0.0 0.00 0.00 0.00 88 1019.1
20260902051904 60 197 1.0 3.0 0.00 0.00 0.00 89 1019.1
20260902051404 60 198 3.0 7.0 0.00 0.00 0.00 89 1019.1
20260902050905 60 215 2.0 3.0 0.00 0.00 0.00 89 1019.1
20260902050405 60 209 2.0 3.0 0.00 0.00 0.00 89 1019.2
20260902045904 60 197 2.0 3.0 0.00 0.00 0.00 89 1019.2
20260902044904 60 183 0.0 0.0 0.00 0.00 0.00 88 1019.2
20260902043904 60 183 0.0 0.0 0.00 0.00 0.00 88 1019.1
20260902043404 61 182 1.0 3.0 0.00 0.00 0.00 88 1019.1
20260902042904 61 181 1.0 3.0 0.00 0.00 0.00 88 1019.3
20260902042404 61 181 2.0 3.0 0.00 0.00 0.00 88 1019.3
20260902041404 61 200 2.0 3.0 0.00 0.00 0.00 88 1019.3
20260902040404 61 213 2.0 5.0 0.00 0.00 0.00 88 1019.3
20260902035904 61 210 3.0 5.0 0.00 0.00 0.00 88 1019.3
20260902035404 61 208 2.0 3.0 0.00 0.00 0.00 88 1019.3
20260902034905 61 209 0.0 0.0 0.00 0.00 0.00 88 1019.3
20260902034405 61 213 0.0 0.0 0.00 0.00 0.00 88 1019.3
20260902033904 61 213 0.0 0.0 0.00 0.00 0.00 88 1019.3
20260902033405 61 213 1.0 3.0 0.00 0.00 0.00 88 1019.3
20260902032905 61 193 0.0 0.0 0.00 0.00 0.00 88 1019.3
20260902032404 61 218 2.0 3.0 0.00 0.00 0.00 87 1019.3
20260902031904 61 214 1.0 3.0 0.00 0.00 0.00 88 1019.3
20260902031404 62 214 2.0 5.0 0.00 0.00 0.00 88 1019.3
20260902030904 62 203 2.0 5.0 0.00 0.00 0.00 88 1019.3
20260902030404 62 203 3.0 3.0 0.00 0.00 0.00 88 1019.3
20260902025904 62 182 2.0 3.0 0.00 0.00 0.00 88 1019.6
20260902024905 62 216 2.0 5.0 0.00 0.00 0.00 88 1019.7
20260902024405 62 204 2.0 3.0 0.00 0.00 0.00 88 1019.7
20260902023904 62 189 0.0 0.0 0.00 0.00 0.00 88 1019.8
20260902022905 62 189 0.0 0.0 0.00 0.00 0.00 88 1019.7
20260902022404 62 188 0.0 0.0 0.00 0.00 0.00 88 1019.9
20260902021905 62 187 0.0 0.0 0.00 0.00 0.00 87 1019.9
20260902020904 62 187 0.0 0.0 0.00 0.00 0.00 87 1019.9
20260902020404 62 187 0.0 0.0 0.00 0.00 0.00 87 1019.9
20260902014904 62 187 0.0 0.0 0.00 0.00 0.00 87 1019.8
20260902014404 62 188 0.0 0.0 0.00 0.00 0.00 87 1019.9
20260902013904 62 191 0.0 0.0 0.00 0.00 0.00 87 1019.9
20260902013404 62 189 0.0 0.0 0.00 0.00 0.00 87 1020.0
20260902012904 62 186 2.0 3.0 0.00 0.00 0.00 87 1020.0
20260902011904 62 206 0.0 0.0 0.00 0.00 0.00 87 1020.3
20260902011404 62 214 0.0 0.0 0.00 0.00 0.00 87 1020.3
20260902010905 62 215 0.0 1.0 0.00 0.00 0.00 87 1020.3
20260902010404 62 215 0.0 0.0 0.00 0.00 0.00 87 1020.3
20260902005905 62 214 0.0 1.0 0.00 0.00 0.00 88 1020.3
20260902004904 62 214 0.0 0.0 0.00 0.00 0.00 88 1020.3
20260902004405 62 227 0.0 0.0 0.00 0.00 0.00 88 1020.3
20260902003404 62 254 1.0 5.0 0.00 0.00 0.00 88 1020.3
20260902002904 62 267 1.0 5.0 0.00 0.00 0.00 88 1020.3
20260902002404 62 257 1.0 3.0 0.00 0.00 0.00 88 1020.3
20260902001904 62 221 0.0 0.0 0.00 0.00 0.00 88 1020.3
20260902001405 62 220 0.0 2.0 0.00 0.00 0.00 88 1020.3
20260902000904 62 216 2.0 3.0 0.00 0.00 0.00 88 1020.3
20260902000406 62 204 1.0 3.0 0.00 0.00 0.00 88 1020.3
20260901235904 62 183 1.0 3.0 0.00 0.00 0.00 87 1020.3
20260901235404 62 211 0.0 0.0 0.00 0.00 0.00 87 1020.3
20260901233904 62 212 0.0 0.0 0.00 0.00 0.00 87 1020.2
20260901233404 62 210 0.0 0.0 0.00 0.00 0.00 87 1020.2
20260901232904 62 215 0.0 0.0 0.00 0.00 0.00 87 1020.3
20260901232405 62 223 0.0 3.0 0.00 0.00 0.00 87 1020.2
20260901231904 62 215 2.0 3.0 0.00 0.00 0.00 87 1020.2
20260901231404 62 216 2.0 5.0 0.00 0.00 0.00 87 1020.2
20260901230905 62 205 2.0 3.0 0.00 0.00 0.00 87 1020.2
20260901225404 62 214 2.0 3.0 0.00 0.00 0.00 87 1020.2
20260901224904 62 206 2.0 3.0 0.00 0.00 0.00 87 1020.2
20260901224404 62 197 2.0 3.0 0.00 0.00 0.00 86 1020.2
20260901223904 62 195 3.0 5.0 0.00 0.00 0.00 86 1020.3
20260901223404 62 211 0.0 0.0 0.00 0.00 0.00 86 1020.3
20260901222904 62 215 0.0 0.0 0.00 0.00 0.00 86 1020.3
20260901222406 62 214 0.0 0.0 0.00 0.00 0.00 85 1020.3
20260901221904 62 213 0.0 3.0 0.00 0.00 0.00 86 1020.3
20260901221404 63 213 0.0 3.0 0.00 0.00 0.00 86 1020.4
20260901220405 63 241 1.0 2.0 0.00 0.00 0.00 85 1020.4
20260901215405 63 247 1.0 3.0 0.00 0.00 0.00 85 1020.4
20260901214904 63 256 2.0 3.0 0.00 0.00 0.00 85 1020.4
20260901214404 63 260 1.0 5.0 0.00 0.00 0.00 85 1020.5
20260901213904 63 262 1.0 3.0 0.00 0.00 0.00 85 1020.5
20260901213404 63 240 1.0 3.0 0.00 0.00 0.00 85 1020.5
20260901212905 63 270 1.0 3.0 0.00 0.00 0.00 85 1020.5
20260901211904 63 223 1.0 2.0 0.00 0.00 0.00 85 1020.5
20260901211404 63 223 1.0 3.0 0.00 0.00 0.00 85 1020.5
20260901210905 63 222 1.0 3.0 0.00 0.00 0.00 85 1020.5
20260901210404 63 222 1.0 3.0 0.00 0.00 0.00 85 1020.5
20260901205904 63 254 0.0 3.0 0.00 0.00 0.00 84 1020.5
20260901204904 63 262 2.0 3.0 0.00 0.00 0.00 84 1020.5
20260901204404 63 226 1.0 3.0 0.00 0.00 0.00 84 1020.5
20260901203904 63 190 1.0 5.0 0.00 0.00 0.00 84 1020.5
20260901202404 63 260 1.0 3.0 0.00 0.00 0.00 84 1020.5
20260901201904 63 209 1.0 6.0 0.00 0.00 0.00 83 1020.5
20260901201405 63 207 0.0 0.0 0.00 0.00 0.00 83 1020.5
20260901200904 63 206 1.0 3.0 0.00 0.00 0.00 83 1020.5
20260901200404 63 205 2.0 3.0 0.00 0.00 0.00 83 1020.5
20260901195904 63 221 0.0 2.0 0.00 0.00 0.00 82 1020.5
20260901195404 63 220 0.0 3.0 0.00 0.00 0.00 82 1020.5
20260901194905 63 221 3.0 3.0 0.00 0.00 0.00 82 1020.3
20260901194404 63 204 3.0 3.0 0.00 0.00 0.00 81 1020.3
20260901193904 63 191 2.0 5.0 0.00 0.00 0.00 81 1020.3
20260901193405 63 182 4.0 8.0 0.00 0.00 0.00 81 1020.2
20260901192404 63 193 3.0 6.0 0.00 0.00 0.00 80 1020.2
20260901191904 63 201 2.0 5.0 0.00 0.00 0.00 79 1020.2
20260901191404 63 189 3.0 6.0 0.00 0.00 0.00 79 1020.1
20260901190904 63 186 3.0 6.0 0.00 0.00 0.00 78 1020.3
20260901190404 64 217 2.0 6.0 0.00 0.00 0.00 78 1020.3
20260901185904 64 216 2.0 7.0 0.00 0.00 0.00 77 1020.3
20260901184904 64 228 2.0 8.0 0.00 0.00 0.00 77 1020.3
20260901184404 64 199 3.0 6.0 0.00 0.00 0.00 77 1020.4
20260901183904 64 244 3.0 5.0 0.00 0.00 0.00 76 1020.4
20260901183405 64 208 3.0 5.0 0.00 0.00 0.00 76 1020.4
20260901182904 64 208 2.0 7.0 0.00 0.00 0.00 75 1020.4
20260901182405 64 225 3.0 7.0 0.00 0.00 0.00 75 1020.2
20260901181904 64 240 3.0 7.0 0.00 0.00 0.00 74 1020.2
20260901181404 64 269 2.0 5.0 0.00 0.00 0.00 74 1020.2
20260901180904 65 227 3.0 8.0 0.00 0.00 0.00 74 1020.2
20260901180404 65 232 2.0 6.0 0.00 0.00 0.00 73 1020.2
20260901175905 65 237 3.0 8.0 0.00 0.00 0.00 73 1020.2
20260901175404 65 224 5.0 9.0 0.00 0.00 0.00 73 1020.2
20260901174904 65 232 3.0 8.0 0.00 0.00 0.00 73 1020.2
20260901174404 65 209 4.0 9.0 0.00 0.00 0.00 73 1020.2
20260901173904 66 229 5.0 9.0 0.00 0.00 0.00 72 1020.2
20260901173404 66 236 3.0 8.0 0.00 0.00 0.00 72 1020.2
20260901172904 66 235 5.0 13.0 0.00 0.00 0.00 71 1020.2
20260901172404 66 234 5.0 10.0 0.00 0.00 0.00 71 1020.2
20260901171904 66 224 4.0 9.0 0.00 0.00 0.00 70 1020.2
20260901171404 67 256 5.0 9.0 0.00 0.00 0.00 69 1020.2
20260901170904 67 230 6.0 12.0 0.00 0.00 0.00 70 1020.2
20260901170404 67 246 5.0 12.0 0.00 0.00 0.00 69 1020.2
20260901165905 67 227 6.0 12.0 0.00 0.00 0.00 69 1020.2
20260901164904 67 213 5.0 14.0 0.00 0.00 0.00 68 1020.3
20260901163904 67 246 5.0 10.0 0.00 0.00 0.00 70 1020.2
20260901163404 67 231 7.0 14.0 0.00 0.00 0.00 69 1020.2
20260901162904 67 230 6.0 16.0 0.00 0.00 0.00 69 1020.2
20260901162404 67 208 6.0 13.0 0.00 0.00 0.00 70 1020.2
20260901161905 67 241 5.0 12.0 0.00 0.00 0.00 70 1020.2
20260901161404 67 226 6.0 15.0 0.00 0.00 0.00 70 1020.2
20260901160904 68 199 6.0 13.0 0.00 0.00 0.00 70 1020.2
20260901160404 67 227 5.0 14.0 0.00 0.00 0.00 70 1020.3
20260901155904 67 213 9.0 17.0 0.00 0.00 0.00 70 1020.3
20260901155405 67 217 5.0 10.0 0.00 0.00 0.00 70 1020.3
20260901154904 67 242 3.0 12.0 0.00 0.00 0.00 71 1020.3
20260901154404 67 261 7.0 17.0 0.00 0.00 0.00 69 1020.3
20260901153904 67 202 7.0 16.0 0.00 0.00 0.00 69 1020.3
20260901152905 68 224 6.0 14.0 0.00 0.00 0.00 68 1020.3
20260901152404 68 208 6.0 13.0 0.00 0.00 0.00 68 1020.3
20260901151405 68 241 5.0 12.0 0.00 0.00 0.00 67 1020.3
20260901150904 69 195 8.0 15.0 0.00 0.00 0.00 65 1020.3
20260901150404 69 219 5.0 13.0 0.00 0.00 0.00 63 1020.5
20260901145904 69 216 7.0 12.0 0.00 0.00 0.00 63 1020.5
20260901145404 69 252 3.0 13.0 0.00 0.00 0.00 67 1020.6
20260901144904 69 217 10.0 16.0 0.00 0.00 0.00 65 1020.5
20260901144404 69 205 9.0 16.0 0.00 0.00 0.00 64 1020.5
20260901143904 70 222 7.0 17.0 0.00 0.00 0.00 64 1020.5
20260901142904 70 223 8.0 20.0 0.00 0.00 0.00 63 1020.5
20260901142404 71 246 6.0 12.0 0.00 0.00 0.00 63 1020.5
20260901141904 71 239 7.0 17.0 0.00 0.00 0.00 63 1020.5
20260901141404 71 217 7.0 15.0 0.00 0.00 0.00 62 1020.5
20260901140904 71 227 6.0 16.0 0.00 0.00 0.00 62 1020.5
20260901134904 71 234 9.0 14.0 0.00 0.00 0.00 57 1020.8
20260901134404 71 214 7.0 12.0 0.00 0.00 0.00 58 1020.8
20260901133904 71 228 5.0 12.0 0.00 0.00 0.00 59 1020.8
20260901133404 71 253 6.0 13.0 0.00 0.00 0.00 60 1020.7
20260901132904 70 240 5.0 10.0 0.00 0.00 0.00 60 1020.7
20260901131904 71 242 5.0 9.0 0.00 0.00 0.00 58 1020.7
20260901130904 72 242 6.0 13.0 0.00 0.00 0.00 58 1020.8
20260901130404 72 236 3.0 10.0 0.00 0.00 0.00 56 1020.8
20260901125904 72 231 5.0 10.0 0.00 0.00 0.00 58 1020.8
20260901125404 71 216 6.0 12.0 0.00 0.00 0.00 56 1020.8
20260901124904 72 255 5.0 10.0 0.00 0.00 0.00 56 1020.8
20260901124404 72 219 4.0 10.0 0.00 0.00 0.00 54 1020.7
20260901123904 71 220 6.0 15.0 0.00 0.00 0.00 56 1020.7
20260901123404 72 228 7.0 13.0 0.00 0.00 0.00 55 1020.9
20260901122404 71 219 6.0 14.0 0.00 0.00 0.00 60 1020.9
20260901121404 71 166 9.0 16.0 0.00 0.00 0.00 59 1020.9
20260901120904 70 211 6.0 14.0 0.00 0.00 0.00 60 1020.9
20260901120404 70 242 5.0 10.0 0.00 0.00 0.00 61 1020.9
20260901115904 71 284 4.0 9.0 0.00 0.00 0.00 63 1020.9
20260901115404 70 275 5.0 10.0 0.00 0.00 0.00 64 1020.8
20260901114904 69 353 4.0 8.0 0.00 0.00 0.00 64 1020.8
20260901114404 69 220 6.0 10.0 0.00 0.00 0.00 63 1020.8
20260901113404 69 247 4.0 10.0 0.00 0.00 0.00 63 1020.8
20260901112904 71 224 5.0 10.0 0.00 0.00 0.00 61 1020.8
20260901111905 69 246 3.0 7.0 0.00 0.00 0.00 60 1021.0
20260901111405 69 214 3.0 6.0 0.00 0.00 0.00 63 1021.0
20260901110904 69 262 4.0 12.0 0.00 0.00 0.00 62 1021.0
20260901110404 69 263 5.0 9.0 0.00 0.00 0.00 61 1021.0
20260901105904 69 225 3.0 7.0 0.00 0.00 0.00 58 1020.9
20260901105404 70 223 5.0 7.0 0.00 0.00 0.00 56 1020.9
20260901104404 70 226 3.0 5.0 0.00 0.00 0.00 58 1021.1
20260901103904 71 201 5.0 9.0 0.00 0.00 0.00 62 1021.1
20260901103404 70 275 4.0 8.0 0.00 0.00 0.00 61 1021.3
20260901102404 68 248 3.0 7.0 0.00 0.00 0.00 64 1021.3
20260901101904 68 249 3.0 8.0 0.00 0.00 0.00 67 1021.3
20260901101404 68 267 3.0 7.0 0.00 0.00 0.00 68 1021.3
20260901100904 67 269 3.0 8.0 0.00 0.00 0.00 70 1021.3
20260901095904 67 264 7.0 13.0 0.00 0.00 0.00 69 1021.5
20260901094904 67 252 3.0 8.0 0.00 0.00 0.00 67 1021.5
20260901094404 67 291 7.0 12.0 0.00 0.00 0.00 67 1021.4
20260901093404 67 281 2.0 5.0 0.00 0.00 0.00 65 1021.5
20260901091905 67 302 3.0 8.0 0.00 0.00 0.00 64 1021.4
20260901091404 67 259 3.0 7.0 0.00 0.00 0.00 64 1021.4
20260901090904 67 265 4.0 7.0 0.00 0.00 0.00 67 1021.4
20260901090404 66 217 3.0 7.0 0.00 0.00 0.00 65 1021.4
20260901085904 67 249 4.0 8.0 0.00 0.00 0.00 68 1021.4
20260901085404 67 264 3.0 9.0 0.00 0.00 0.00 68 1021.4
20260901084905 66 277 6.0 10.0 0.00 0.00 0.00 72 1021.3
20260901084404 65 292 6.0 9.0 0.00 0.00 0.00 74 1021.3
20260901083904 65 273 5.0 7.0 0.00 0.00 0.00 75 1021.3
20260901083404 65 281 6.0 9.0 0.00 0.00 0.00 76 1021.3
20260901082905 64 278 3.0 5.0 0.00 0.00 0.00 78 1021.3
20260901081904 64 283 2.0 5.0 0.00 0.00 0.00 80 1021.3
20260901081404 63 287 2.0 6.0 0.00 0.00 0.00 82 1021.3
20260901075404 62 277 1.0 3.0 0.00 0.00 0.00 83 1020.8
20260901074904 62 297 2.0 5.0 0.00 0.00 0.00 84 1020.8
20260901073904 61 296 3.0 5.0 0.00 0.00 0.00 85 1020.8